Reidsville, NC

3:40 AM EST on February 25, 2018 (GMT -0500)
Reidsville

Weather History for KSIF - November, 2012

Change the Weather History Date:

Thursday, November 1, 2012

  Actual Average (KGSO) Record (KGSO)
Temperature  
Mean Temperature 45 °F -  
Max Temperature 55 °F 67 °F 85 °F (1950)
Min Temperature 35 °F 46 °F 25 °F (1930)
Degree Days  
Heating Degree Days 20    
Moisture  
Dew Point 34 °F    
Average Humidity 63    
Maximum Humidity 91    
Minimum Humidity 46    
Precipitation  
Precipitation 0.00 in - - ()
Sea Level Pressure  
Sea Level Pressure 29.79 in    
Wind  
Wind Speed 4 mph (West)    
Max Wind Speed 14 mph    
Max Gust Speed 22 mph    
Visibility 10 miles    
Events      
Averages and records for this station are not official NWS values.
T = Trace of Precipitation, MM = Missing Value Source: NWS Daily Summary

Daily Weather History Graph

Daily Weather History Graph

Search for Another Location

Airport or City:

Trip Planner

Search our weather history database for the weather conditions in past years. The results will help you decide how hot, cold, wet, or windy it might be!

Date:

Astronomy

Nov. 01, 2012 Rise Set
Actual Time 7:43 AM EDT 6:22 PM EDT
Civil Twilight 7:16 AM EDT 6:49 PM EDT
Nautical Twilight 6:45 AM EDT 7:19 PM EDT
Astronomical Twilight 6:15 AM EDT 7:49 PM EDT
Moon 8:21 PM EDT (11/1) 10:10 AM EDT (11/1)
Length of Visible Light 11h 32m
Length of Day
10h 39m
Waning Gibbous, 93% of the Moon is Illuminated
Nov 1
Waning Gibbous
Nov 6
Last Quarter
Nov 13
New
Nov 20
First Quarter
Nov 28
Full

Hourly Weather History & Observations

Time (EDT) Temp. Windchill Dew Point Humidity Pressure Visibility Wind Dir Wind Speed Gust Speed Precip Events Conditions
12:15 AM 45.7 °F - 34.9 °F 66% 29.76 in 10.0 mi Calm Calm - N/A   Overcast
12:35 AM 45.7 °F 44.4 °F 35.1 °F 66% 29.76 in 10.0 mi WSW 3.5 mph - N/A   Overcast
12:55 AM 45.7 °F - 34.9 °F 66% 29.76 in 10.0 mi Calm Calm - N/A   Overcast
1:15 AM 46.0 °F 44.8 °F 34.9 °F 65% 29.76 in 10.0 mi West 3.5 mph - N/A   Overcast
1:35 AM 46.4 °F 44.3 °F 34.7 °F 64% 29.76 in 10.0 mi West 4.6 mph - N/A   Overcast
1:55 AM 46.2 °F 42.7 °F 34.5 °F 64% 29.76 in 10.0 mi West 6.9 mph - N/A   Mostly Cloudy
2:15 AM 45.9 °F 43.6 °F 34.5 °F 65% 29.76 in 10.0 mi West 4.6 mph - N/A   Mostly Cloudy
2:35 AM 45.9 °F 43.6 °F 34.7 °F 65% 29.76 in 10.0 mi WSW 4.6 mph - N/A   Overcast
2:55 AM 45.9 °F 42.9 °F 34.7 °F 65% 29.76 in 10.0 mi West 5.8 mph - N/A   Overcast
3:15 AM 46.4 °F 43.5 °F 34.5 °F 63% 29.76 in 10.0 mi West 5.8 mph - N/A   Overcast
3:35 AM 46.4 °F 45.2 °F 34.3 °F 63% 29.76 in 10.0 mi West 3.5 mph - N/A   Overcast
3:55 AM 46.2 °F 45.0 °F 34.5 °F 64% 29.76 in 10.0 mi West 3.5 mph - N/A   Overcast
4:15 AM 46.2 °F 43.3 °F 34.5 °F 64% 29.76 in 10.0 mi West 5.8 mph - N/A   Overcast
4:35 AM 46.0 °F 43.9 °F 34.3 °F 64% 29.76 in 10.0 mi West 4.6 mph - N/A   Mostly Cloudy
5:15 AM 45.5 °F 44.2 °F 34.3 °F 65% 29.75 in 10.0 mi West 3.5 mph - N/A   Overcast
5:35 AM 44.8 °F 43.3 °F 34.2 °F 66% 29.76 in 10.0 mi West 3.5 mph - N/A   Mostly Cloudy
5:55 AM 44.8 °F - 34.2 °F 66% 29.76 in 10.0 mi Calm Calm - N/A   Overcast
6:15 AM 44.8 °F 43.3 °F 34.2 °F 66% 29.76 in 10.0 mi West 3.5 mph - N/A   Overcast
6:35 AM 45.0 °F - 33.8 °F 65% 29.77 in 10.0 mi Calm Calm - N/A   Mostly Cloudy
7:15 AM 41.4 °F - 33.6 °F 74% 29.77 in 10.0 mi Calm Calm - N/A   Scattered Clouds
7:35 AM 38.5 °F - 33.6 °F 83% 29.77 in 10.0 mi Calm Calm - N/A   Scattered Clouds
7:55 AM 39.0 °F - 34.5 °F 84% 29.78 in 10.0 mi Calm Calm - N/A   Mostly Cloudy
8:15 AM 42.1 °F - 34.7 °F 75% 29.78 in 10.0 mi Calm Calm - N/A   Overcast
8:35 AM 43.3 °F 41.7 °F 34.7 °F 72% 29.79 in 10.0 mi SW 3.5 mph - N/A   Overcast
8:55 AM 44.4 °F 42.9 °F 34.5 °F 68% 29.79 in 10.0 mi West 3.5 mph - N/A   Mostly Cloudy
9:35 AM 48.4 °F - 33.8 °F 57% 29.80 in 10.0 mi West 8.1 mph - N/A   Overcast
10:15 AM 48.6 °F - 32.7 °F 54% 29.81 in 10.0 mi WNW 5.8 mph - N/A   Mostly Cloudy
10:35 AM 49.3 °F - 32.5 °F 53% 29.81 in 10.0 mi West 13.8 mph 20.7 mph N/A   Mostly Cloudy
10:55 AM 50.4 °F - 32.7 °F 51% 29.81 in 10.0 mi West 12.7 mph 18.4 mph N/A   Mostly Cloudy
11:15 AM 51.8 °F - 33.4 °F 50% 29.82 in 10.0 mi WNW 8.1 mph 16.1 mph N/A   Overcast
11:35 AM 51.3 °F - 33.3 °F 50% 29.82 in 10.0 mi West 9.2 mph 17.3 mph N/A   Overcast
11:55 AM 51.1 °F - 33.8 °F 52% 29.82 in 10.0 mi West 6.9 mph - N/A   Overcast
12:15 PM 51.6 °F - 34.0 °F 51% 29.81 in 10.0 mi WNW 9.2 mph - N/A   Overcast
12:35 PM 52.3 °F - 34.2 °F 50% 29.81 in 10.0 mi WNW 10.4 mph - N/A   Overcast
1:15 PM 52.9 °F - 34.2 °F 49% 29.79 in 10.0 mi West 8.1 mph - N/A   Overcast
1:35 PM 52.9 °F - 34.3 °F 49% 29.78 in 10.0 mi West 5.8 mph - N/A   Overcast
1:55 PM 53.4 °F - 35.2 °F 50% 29.78 in 10.0 mi West 5.8 mph - N/A   Overcast
2:15 PM 52.9 °F - 34.9 °F 50% 29.78 in 10.0 mi West 8.1 mph 16.1 mph N/A   Overcast
2:35 PM 53.4 °F - 34.9 °F 49% 29.78 in 10.0 mi West 8.1 mph - N/A   Overcast
2:55 PM 53.6 °F - 34.9 °F 49% 29.77 in 10.0 mi West 9.2 mph - N/A   Overcast
3:15 PM 53.4 °F - 34.7 °F 49% 29.78 in 10.0 mi West 9.2 mph 17.3 mph N/A   Overcast
3:35 PM 53.1 °F - 35.1 °F 50% 29.78 in 10.0 mi West 8.1 mph 20.7 mph N/A   Overcast
3:55 PM 54.3 °F - 34.9 °F 48% 29.78 in 10.0 mi West 12.7 mph 21.9 mph N/A   Overcast
4:15 PM 55.0 °F - 34.7 °F 46% 29.78 in 10.0 mi West 12.7 mph 20.7 mph N/A   Mostly Cloudy
4:35 PM 54.9 °F - 34.7 °F 47% 29.78 in 10.0 mi WNW 6.9 mph 18.4 mph N/A   Scattered Clouds
5:15 PM 52.7 °F - 34.5 °F 50% 29.79 in 10.0 mi West 4.6 mph - N/A   Scattered Clouds
5:35 PM 52.5 °F - 34.7 °F 51% 29.79 in 10.0 mi WSW 8.1 mph - N/A   Scattered Clouds
6:15 PM 50.5 °F - 35.1 °F 55% 29.80 in 10.0 mi WNW 4.6 mph - N/A   Clear
6:35 PM 48.9 °F - 34.9 °F 58% 29.81 in 10.0 mi WNW 4.6 mph - N/A   Clear
6:55 PM 45.7 °F - 34.7 °F 65% 29.81 in 10.0 mi Calm Calm - N/A   Clear
7:15 PM 41.7 °F - 34.7 °F 76% 29.82 in 10.0 mi Calm Calm - N/A   Clear
7:35 PM 39.4 °F - 34.3 °F 82% 29.82 in 10.0 mi Calm Calm - N/A   Clear
7:55 PM 38.1 °F - 34.2 °F 86% 29.83 in 10.0 mi Calm Calm - N/A   Clear
8:15 PM 37.0 °F - 33.6 °F 87% 29.82 in 10.0 mi Calm Calm - N/A   Clear
8:35 PM 36.1 °F - 33.3 °F 89% 29.82 in 10.0 mi Calm Calm - N/A   Clear
8:55 PM 36.0 °F - 33.4 °F 91% 29.83 in 10.0 mi Calm Calm - N/A   Clear
9:15 PM 35.4 °F - 32.5 °F 89% 29.83 in 10.0 mi Calm Calm - N/A   Clear
9:35 PM 37.0 °F - 33.4 °F 87% 29.84 in 10.0 mi Calm Calm - N/A   Clear
9:55 PM 37.0 °F - 32.9 °F 85% 29.84 in 10.0 mi Calm Calm - N/A   Clear